Tracking 23764 objects as of 18-Oct-2021
HD Live streaming from Space Station
objects crossing your sky now

INTELSAT 3-F7

Track INTELSAT 3-F7 now!
INTELSAT 3-F7 is classified as:


NORAD ID: 4376
Int'l Code: 1970-032A
Perigee: 35,762.4 km
Apogee: 35,768.4 km
Inclination: 2.0 °
Period: 1,434.6 minutes
Semi major axis: 42136 km
RCS: 0.003 m2 (small)
Launch date: April 23, 1970
Source: International Telecommunications Satellite Organization (ITSO)
Launch site: AIR FORCE EASTERN TEST RANGE (AFETR)
aabbcc
Your satellite tracking list
Your tracking list is empty




NASA's NSSDC Master Catalog

Two Line Element Set (TLE):
1 04376U 70032A   21290.56623624  .00000114  00000-0  00000-0 0  9996
2 04376   2.0236 274.7823 0000706   1.4098 357.9809  1.00373062 30278
Source of the keplerian elements: AFSPC